Zurück zum Katalog

SL-8 DEB

AktivLEO
NORAD 21156·DEBRIS·🇷🇺 Russia

Gestartet Feb 12, 1991 von Plesetsk Cosmodrome

Loading…

Nächste Überflüge (nächste 24 Stunden)

TLE

AktuellSource: Space-Track

Epoche: Sep 14, 2026, 15:49 UTC

1 21156U 91009T   26257.65931927 -.00000026  00000-0 -84463-4 0  9997
2 21156  73.9111 229.6046 0146622 169.5145   4.1500 12.33875120600301

Verfolge SL-8 DEB in Echtzeit mit AllMySat

Download on the App Store